Tracking 25709 objects as of 23-May-2022
HD Live streaming from Space Station
objects crossing your sky now

CZ-2 DEB

Track CZ-2 DEB now!
10-day predictions


NORAD ID: 38662
Int'l Code: 2012-029D
Perigee: 1,095.5 km
Apogee: 1,294.9 km
Inclination: 100.4 °
Period: 109.2 minutes
Semi major axis: 7566 km
RCS: 0.003 m2 (small)
Launch date: May 29, 2012
Source: People's Republic of China (PRC)
Launch site: Taiyaun Space Center, China (TSC)

Note: This is SATELLITE DEBRIS
aabbcc
Your satellite tracking list
Your tracking list is empty




NASA's NSSDC Master Catalog

Two Line Element Set (TLE):
1 38662U 12029D   22143.05131676  .00000121  00000-0  39745-3 0  9995
2 38662 100.3900 250.5606 0131774 167.0514 193.4037 13.19120862477481
Source of the keplerian elements: AFSPC